User: anonymous   Login
Location: Unspecified
(0.0000°N, 0.0000°E)
Time: 18:50:45
(UTC+00:00)
Language:

Tansei-1 - Orbit

View from above orbital plane
View from above orbital plane
View from above satellite
View from above satellite

Ground track
Ground track

The orbit data is extracted from the following two-line orbital elements,

1  4952U 71011A   17145.97002993 +.00000077 +00000-0 +16091-4 0  9992
2  4952 029.6687 338.0995 0079867 339.2229 179.2036 13.58468444298211
Epoch (UTC): 25 May 2017 23:16:50
Eccentricity: 0.0079867
inclination: 29.6687°
perigee height: 982 km
apogee height: 1100 km
right ascension of ascending node: 338.0995°
argument of perigee: 339.2229°
revolutions per day: 13.58468444
mean anomaly at epoch: 179.2036°
orbit number at epoch: 29821

The dashed part of the orbit path shows where the satellite is in the earth's shadow,  

DLR